| time (UTC) | temp F | wind direction | speed MPH | gust MPH | rain 1hr in | rain 24hr in | rain mn in | humidity % | barometer mb |
| 20260505011057 | 65 | 360 | 4.0 | 6.0 | 0.00 | 0.01 | 0.00 | 67 | 1005.4 |
| 20260505010559 | 65 | 360 | 3.0 | 6.0 | 0.00 | 0.01 | 0.00 | 66 | 1005.4 |
| 20260505010100 | 66 | 360 | 2.0 | 6.0 | 0.00 | 0.01 | 0.00 | 66 | 1005.5 |
| 20260505005559 | 66 | 200 | 3.0 | 6.0 | 0.00 | 0.03 | 0.00 | 65 | 1005.4 |
| 20260505005102 | 66 | 209 | 3.0 | 6.0 | 0.00 | 0.03 | 0.00 | 65 | 1005.4 |
| 20260505004600 | 67 | 197 | 2.0 | 7.0 | 0.00 | 0.03 | 0.00 | 64 | 1005.5 |
| 20260505004100 | 67 | 197 | 4.0 | 7.0 | 0.00 | 0.03 | 0.00 | 64 | 1005.5 |
| 20260505003559 | 67 | 209 | 3.0 | 8.0 | 0.00 | 0.03 | 0.00 | 63 | 1005.5 |
| 20260505003059 | 68 | 201 | 4.0 | 8.0 | 0.00 | 0.03 | 0.00 | 62 | 1005.4 |
| 20260505002600 | 68 | 171 | 3.0 | 8.0 | 0.00 | 0.03 | 0.00 | 62 | 1005.5 |
| 20260505002056 | 68 | 200 | 4.0 | 9.0 | 0.00 | 0.03 | 0.00 | 61 | 1005.5 |
| 20260505001600 | 69 | 205 | 4.0 | 9.0 | 0.00 | 0.03 | 0.00 | 61 | 1005.6 |
| 20260505001059 | 69 | 213 | 3.0 | 8.0 | 0.00 | 0.03 | 0.00 | 60 | 1005.6 |
| 20260505000559 | 69 | 218 | 3.0 | 9.0 | 0.00 | 0.03 | 0.00 | 60 | 1005.6 |
| 20260505000115 | 70 | 229 | 4.0 | 10.0 | 0.00 | 0.03 | 0.00 | 59 | 1005.5 |
| 20260504235602 | 70 | 180 | 5.0 | 11.0 | 0.00 | 0.03 | 0.00 | 59 | 1005.5 |
| 20260504235058 | 70 | 215 | 5.0 | 12.0 | 0.00 | 0.03 | 0.00 | 58 | 1005.6 |
| 20260504234600 | 71 | 213 | 6.0 | 14.0 | 0.00 | 0.03 | 0.00 | 58 | 1005.6 |
| 20260504234056 | 71 | 236 | 7.0 | 16.0 | 0.00 | 0.03 | 0.00 | 58 | 1005.6 |
| 20260504233558 | 71 | 227 | 6.0 | 16.0 | 0.00 | 0.03 | 0.00 | 58 | 1005.5 |
| 20260504233109 | 71 | 247 | 6.0 | 15.0 | 0.00 | 0.03 | 0.00 | 58 | 1005.7 |
| 20260504232557 | 71 | 200 | 7.0 | 15.0 | 0.00 | 0.03 | 0.00 | 58 | 1005.8 |
| 20260504232056 | 71 | 227 | 8.0 | 15.0 | 0.00 | 0.03 | 0.00 | 57 | 1005.8 |
| 20260504231601 | 72 | 246 | 8.0 | 15.0 | 0.00 | 0.03 | 0.00 | 57 | 1005.9 |
| 20260504231056 | 72 | 253 | 8.0 | 17.0 | 0.00 | 0.03 | 0.00 | 57 | 1006.0 |
| 20260504230556 | 71 | 210 | 8.0 | 17.0 | 0.00 | 0.03 | 0.00 | 57 | 1005.9 |
| 20260504230057 | 71 | 207 | 10.0 | 20.0 | 0.00 | 0.03 | 0.00 | 57 | 1006.0 |
| 20260504225557 | 71 | 234 | 9.0 | 20.0 | 0.00 | 0.03 | 0.00 | 57 | 1006.0 |
| 20260504225057 | 72 | 255 | 9.0 | 20.0 | 0.00 | 0.03 | 0.00 | 56 | 1006.0 |
| 20260504224609 | 72 | 237 | 10.0 | 18.0 | 0.00 | 0.03 | 0.00 | 57 | 1006.2 |
| 20260504224057 | 72 | 218 | 9.0 | 21.0 | 0.00 | 0.03 | 0.00 | 56 | 1006.0 |
| 20260504223606 | 72 | 202 | 9.0 | 21.0 | 0.00 | 0.03 | 0.00 | 57 | 1006.1 |
| 20260504223129 | 72 | 197 | 10.0 | 19.0 | 0.00 | 0.03 | 0.00 | 57 | 1006.2 |
| 20260504222557 | 72 | 248 | 10.0 | 19.0 | 0.00 | 0.03 | 0.00 | 58 | 1006.4 |
| 20260504222057 | 71 | 254 | 11.0 | 19.0 | 0.00 | 0.03 | 0.00 | 58 | 1006.4 |
| 20260504221558 | 71 | 277 | 11.0 | 18.0 | 0.00 | 0.03 | 0.00 | 58 | 1006.5 |
| 20260504221103 | 71 | 210 | 11.0 | 25.0 | 0.00 | 0.03 | 0.00 | 59 | 1006.6 |
| 20260504220600 | 71 | 226 | 11.0 | 25.0 | 0.00 | 0.03 | 0.00 | 59 | 1006.7 |
| 20260504220100 | 70 | 225 | 11.0 | 23.0 | 0.00 | 0.03 | 0.00 | 59 | 1006.7 |
| 20260504215600 | 71 | 267 | 14.0 | 23.0 | 0.00 | 0.03 | 0.00 | 58 | 1006.6 |
| 20260504215057 | 71 | 243 | 9.0 | 25.0 | 0.00 | 0.03 | 0.00 | 59 | 1006.5 |
| 20260504214610 | 70 | 254 | 11.0 | 25.0 | 0.00 | 0.03 | 0.00 | 59 | 1006.6 |
| 20260504214059 | 70 | 217 | 10.0 | 18.0 | 0.00 | 0.03 | 0.00 | 59 | 1006.7 |
| 20260504213559 | 70 | 234 | 7.0 | 23.0 | 0.00 | 0.03 | 0.00 | 60 | 1006.4 |
| 20260504213110 | 69 | 250 | 11.0 | 23.0 | 0.00 | 0.03 | 0.00 | 59 | 1006.5 |
| 20260504212559 | 69 | 223 | 11.0 | 23.0 | 0.00 | 0.03 | 0.00 | 59 | 1006.6 |
| 20260504212059 | 69 | 255 | 11.0 | 23.0 | 0.00 | 0.03 | 0.00 | 60 | 1006.8 |
| 20260504211609 | 69 | 232 | 9.0 | 23.0 | 0.00 | 0.03 | 0.00 | 61 | 1006.9 |
| 20260504211057 | 68 | 244 | 11.0 | 23.0 | 0.00 | 0.03 | 0.00 | 63 | 1007.0 |
| 20260504210603 | 68 | 269 | 13.0 | 22.0 | 0.00 | 0.03 | 0.00 | 62 | 1007.0 |
| 20260504210101 | 68 | 288 | 12.0 | 23.0 | 0.00 | 0.03 | 0.00 | 61 | 1007.3 |
| 20260504205603 | 68 | 254 | 10.0 | 23.0 | 0.00 | 0.03 | 0.00 | 61 | 1007.5 |
| 20260504205100 | 68 | 263 | 8.0 | 18.0 | 0.00 | 0.03 | 0.00 | 60 | 1007.2 |
| 20260504204559 | 69 | 270 | 9.0 | 18.0 | 0.00 | 0.03 | 0.00 | 60 | 1006.8 |
| 20260504204100 | 69 | 251 | 7.0 | 18.0 | 0.00 | 0.03 | 0.00 | 61 | 1006.9 |
| 20260504203602 | 69 | 223 | 8.0 | 18.0 | 0.00 | 0.03 | 0.00 | 60 | 1006.8 |
| 20260504203111 | 69 | 267 | 8.0 | 18.0 | 0.00 | 0.03 | 0.00 | 61 | 1007.0 |
| 20260504202600 | 68 | 229 | 8.0 | 18.0 | 0.00 | 0.03 | 0.00 | 60 | 1007.0 |
| 20260504202100 | 68 | 245 | 8.0 | 18.0 | 0.00 | 0.03 | 0.00 | 63 | 1006.9 |
| 20260504201601 | 67 | 189 | 7.0 | 22.0 | 0.00 | 0.03 | 0.00 | 63 | 1007.0 |
| 20260504201101 | 67 | 265 | 12.0 | 22.0 | 0.00 | 0.03 | 0.00 | 63 | 1007.3 |
| 20260504200600 | 67 | 195 | 12.0 | 25.0 | 0.00 | 0.03 | 0.00 | 63 | 1007.5 |
| 20260504200120 | 68 | 234 | 14.0 | 25.0 | 0.00 | 0.03 | 0.00 | 63 | 1007.6 |
| 20260504195600 | 68 | 228 | 14.0 | 25.0 | 0.00 | 0.03 | 0.00 | 61 | 1007.8 |
| 20260504195059 | 69 | 223 | 11.0 | 28.0 | 0.00 | 0.03 | 0.00 | 61 | 1007.9 |
| 20260504194604 | 69 | 250 | 11.0 | 28.0 | 0.00 | 0.03 | 0.00 | 61 | 1008.0 |
| 20260504194101 | 69 | 244 | 15.0 | 28.0 | 0.00 | 0.03 | 0.00 | 60 | 1008.1 |
| 20260504193600 | 69 | 276 | 15.0 | 26.0 | 0.00 | 0.03 | 0.00 | 60 | 1008.1 |
| 20260504193059 | 69 | 244 | 12.0 | 23.0 | 0.00 | 0.03 | 0.00 | 60 | 1008.1 |
| 20260504192601 | 70 | 200 | 12.0 | 23.0 | 0.00 | 0.03 | 0.00 | 59 | 1008.0 |
| 20260504192100 | 71 | 227 | 13.0 | 22.0 | 0.00 | 0.03 | 0.00 | 58 | 1008.0 |
| 20260504191603 | 71 | 242 | 8.0 | 25.0 | 0.00 | 0.03 | 0.00 | 60 | 1007.8 |
| 20260504191100 | 71 | 276 | 11.0 | 26.0 | 0.00 | 0.03 | 0.00 | 58 | 1008.2 |
| 20260504190600 | 71 | 244 | 13.0 | 26.0 | 0.00 | 0.03 | 0.00 | 59 | 1008.1 |
| 20260504185600 | 71 | 248 | 12.0 | 20.0 | 0.00 | 0.03 | 0.00 | 59 | 1007.8 |
| 20260504185059 | 71 | 207 | 12.0 | 22.0 | 0.00 | 0.03 | 0.00 | 58 | 1007.7 |
| 20260504184601 | 71 | 195 | 11.0 | 25.0 | 0.00 | 0.03 | 0.00 | 59 | 1007.6 |
| 20260504184057 | 71 | 254 | 12.0 | 25.0 | 0.00 | 0.03 | 0.00 | 59 | 1007.6 |
| 20260504183601 | 71 | 228 | 14.0 | 25.0 | 0.00 | 0.03 | 0.00 | 58 | 1007.8 |
| 20260504183100 | 71 | 275 | 14.0 | 25.0 | 0.00 | 0.03 | 0.00 | 59 | 1007.8 |
| 20260504182558 | 71 | 214 | 13.0 | 24.0 | 0.00 | 0.03 | 0.00 | 58 | 1007.7 |
| 20260504182100 | 72 | 232 | 10.0 | 25.0 | 0.00 | 0.03 | 0.00 | 58 | 1007.7 |
| 20260504181603 | 72 | 232 | 12.0 | 25.0 | 0.00 | 0.03 | 0.00 | 57 | 1007.7 |
| 20260504181101 | 72 | 270 | 13.0 | 22.0 | 0.00 | 0.03 | 0.00 | 57 | 1007.7 |
| 20260504180602 | 72 | 232 | 8.0 | 18.0 | 0.00 | 0.03 | 0.00 | 58 | 1007.6 |
| 20260504175600 | 71 | 245 | 11.0 | 19.0 | 0.00 | 0.03 | 0.00 | 59 | 1007.9 |
| 20260504175100 | 71 | 255 | 11.0 | 20.0 | 0.00 | 0.03 | 0.00 | 58 | 1007.8 |
| 20260504174619 | 71 | 231 | 7.0 | 20.0 | 0.00 | 0.03 | 0.00 | 58 | 1007.8 |
| 20260504174100 | 70 | 189 | 11.0 | 20.0 | 0.00 | 0.03 | 0.00 | 58 | 1007.8 |
| 20260504173602 | 70 | 360 | 9.0 | 17.0 | 0.00 | 0.03 | 0.00 | 59 | 1007.7 |
| 20260504173101 | 70 | 219 | 9.0 | 19.0 | 0.00 | 0.03 | 0.00 | 59 | 1007.8 |
| 20260504172600 | 69 | 274 | 10.0 | 22.0 | 0.00 | 0.03 | 0.00 | 58 | 1007.8 |
| 20260504172101 | 69 | 234 | 11.0 | 22.0 | 0.00 | 0.03 | 0.00 | 59 | 1007.8 |
| 20260504171559 | 69 | 257 | 10.0 | 19.0 | 0.00 | 0.03 | 0.00 | 59 | 1008.0 |
| 20260504171101 | 69 | 270 | 8.0 | 19.0 | 0.00 | 0.03 | 0.00 | 61 | 1007.9 |
| 20260504170602 | 69 | 246 | 10.0 | 19.0 | 0.00 | 0.03 | 0.00 | 60 | 1008.0 |
| 20260504160109 | 66 | 360 | 7.0 | 21.0 | 0.00 | 0.03 | 0.00 | 64 | 1008.5 |
| 20260504151100 | 63 | 360 | 10.0 | 23.0 | 0.00 | 0.03 | 0.00 | 64 | 1008.9 |
| 20260504150600 | 62 | 232 | 8.0 | 19.0 | 0.00 | 0.03 | 0.00 | 66 | 1008.8 |
| 20260504150113 | 62 | 212 | 11.0 | 19.0 | 0.00 | 0.03 | 0.00 | 64 | 1008.8 |
| 20260504141056 | 59 | 188 | 11.0 | 21.0 | 0.00 | 0.03 | 0.00 | 65 | 1009.2 |
| 20260504140556 | 59 | 191 | 10.0 | 19.0 | 0.00 | 0.03 | 0.00 | 66 | 1009.2 |
| 20260504130556 | 56 | 186 | 5.0 | 18.0 | 0.00 | 0.03 | 0.00 | 68 | 1009.6 |
| 20260504110600 | 48 | 228 | 4.0 | 9.0 | 0.00 | 0.03 | 0.00 | 73 | 1009.5 |
| 20260504100604 | 48 | 215 | 6.0 | 12.0 | 0.00 | 0.03 | 0.00 | 71 | 1009.5 |
| 20260504100115 | 48 | 221 | 4.0 | 10.0 | 0.00 | 0.03 | 0.00 | 71 | 1009.6 |
| 20260504090114 | 48 | 229 | 6.0 | 10.0 | 0.00 | 0.03 | 0.00 | 70 | 1009.9 |
| 20260504081557 | 49 | 217 | 4.0 | 11.0 | 0.00 | 0.03 | 0.00 | 69 | 1010.4 |
| 20260504081100 | 49 | 119 | 3.0 | 11.0 | 0.00 | 0.03 | 0.00 | 69 | 1010.6 |
| 20260504080603 | 49 | 117 | 5.0 | 11.0 | 0.00 | 0.03 | 0.00 | 69 | 1010.6 |
| 20260504050600 | 50 | 111 | 3.0 | 8.0 | 0.00 | 0.03 | 0.00 | 71 | 1012.2 |
| 20260504050106 | 50 | 107 | 4.0 | 8.0 | 0.00 | 0.03 | 0.00 | 71 | 1012.2 |
| 20260504045600 | 50 | 103 | 3.0 | 8.0 | 0.00 | 0.03 | 0.00 | 72 | 1012.3 |
| 20260504045101 | 50 | 102 | 4.0 | 10.0 | 0.00 | 0.03 | 0.00 | 72 | 1012.3 |
| 20260504044605 | 50 | 110 | 4.0 | 10.0 | 0.00 | 0.03 | 0.00 | 72 | 1012.4 |
| 20260504044102 | 50 | 96 | 3.0 | 9.0 | 0.00 | 0.03 | 0.00 | 72 | 1012.4 |
| 20260504043558 | 50 | 113 | 5.0 | 9.0 | 0.00 | 0.03 | 0.00 | 71 | 1012.4 |
| 20260504043059 | 50 | 94 | 4.0 | 9.0 | 0.00 | 0.03 | 0.00 | 72 | 1012.5 |
| 20260504042600 | 50 | 109 | 4.0 | 9.0 | 0.00 | 0.03 | 0.00 | 72 | 1012.5 |
| 20260504042056 | 50 | 102 | 4.0 | 9.0 | 0.00 | 0.03 | 0.00 | 71 | 1012.6 |
| 20260504041559 | 50 | 111 | 4.0 | 8.0 | 0.00 | 0.03 | 0.00 | 71 | 1012.6 |
| 20260504041056 | 50 | 109 | 3.0 | 7.0 | 0.00 | 0.03 | 0.00 | 71 | 1012.6 |
| 20260504040556 | 50 | 99 | 3.0 | 7.0 | 0.00 | 0.03 | 0.00 | 70 | 1012.8 |
| 20260504040116 | 50 | 89 | 2.0 | 8.0 | 0.00 | 0.03 | 0.00 | 70 | 1012.7 |
| 20260504035556 | 50 | 110 | 3.0 | 8.0 | 0.00 | 0.03 | 0.03 | 70 | 1012.8 |
| 20260504035103 | 50 | 102 | 4.0 | 10.0 | 0.00 | 0.03 | 0.03 | 70 | 1012.8 |
| 20260504034634 | 50 | 113 | 3.0 | 10.0 | 0.00 | 0.03 | 0.03 | 71 | 1012.8 |
| 20260504034103 | 50 | 96 | 5.0 | 10.0 | 0.00 | 0.03 | 0.03 | 71 | 1013.0 |
| 20260504033557 | 50 | 103 | 4.0 | 10.0 | 0.00 | 0.03 | 0.03 | 71 | 1012.9 |
| 20260504033100 | 50 | 96 | 4.0 | 10.0 | 0.00 | 0.03 | 0.03 | 72 | 1013.0 |
| 20260504032557 | 49 | 105 | 5.0 | 9.0 | 0.00 | 0.03 | 0.03 | 72 | 1013.1 |
| 20260504032059 | 49 | 102 | 4.0 | 9.0 | 0.00 | 0.03 | 0.03 | 72 | 1013.0 |
| 20260504031558 | 49 | 110 | 4.0 | 9.0 | 0.00 | 0.03 | 0.03 | 72 | 1013.2 |
| 20260504031057 | 49 | 106 | 4.0 | 8.0 | 0.00 | 0.03 | 0.03 | 73 | 1013.2 |
| 20260504030556 | 49 | 97 | 5.0 | 8.0 | 0.00 | 0.03 | 0.03 | 73 | 1013.2 |
| 20260504030120 | 49 | 107 | 4.0 | 8.0 | 0.00 | 0.03 | 0.03 | 74 | 1013.1 |
| 20260504025556 | 49 | 107 | 3.0 | 9.0 | 0.00 | 0.03 | 0.03 | 74 | 1013.1 |
| 20260504025057 | 49 | 107 | 4.0 | 9.0 | 0.00 | 0.03 | 0.03 | 74 | 1013.3 |
| 20260504024602 | 49 | 100 | 3.0 | 8.0 | 0.00 | 0.03 | 0.03 | 73 | 1013.3 |
| 20260504024056 | 49 | 109 | 3.0 | 7.0 | 0.00 | 0.03 | 0.03 | 73 | 1013.2 |
| 20260504023557 | 49 | 86 | 3.0 | 9.0 | 0.00 | 0.03 | 0.03 | 73 | 1013.2 |
| 20260504023100 | 49 | 98 | 3.0 | 9.0 | 0.00 | 0.03 | 0.03 | 74 | 1013.2 |
| 20260504022557 | 49 | 82 | 2.0 | 9.0 | 0.00 | 0.03 | 0.03 | 75 | 1013.3 |
| 20260504022056 | 49 | 103 | 2.0 | 9.0 | 0.00 | 0.03 | 0.03 | 75 | 1013.3 |
| 20260504021559 | 48 | 99 | 2.0 | 6.0 | 0.00 | 0.03 | 0.03 | 76 | 1013.3 |
| 20260504021059 | 48 | 74 | 1.0 | 7.0 | 0.00 | 0.03 | 0.03 | 76 | 1013.4 |
| 20260504020559 | 48 | 98 | 2.0 | 7.0 | 0.01 | 0.03 | 0.03 | 77 | 1013.4 |
| 20260504020107 | 48 | 98 | 3.0 | 8.0 | 0.01 | 0.03 | 0.03 | 79 | 1013.4 |
| 20260504015557 | 48 | 90 | 3.0 | 8.0 | 0.02 | 0.03 | 0.03 | 80 | 1013.5 |
| 20260504015100 | 47 | 108 | 2.0 | 4.0 | 0.02 | 0.03 | 0.03 | 80 | 1013.5 |
| 20260504014608 | 47 | 105 | 2.0 | 4.0 | 0.03 | 0.03 | 0.03 | 81 | 1013.4 |
| 20260504014056 | 47 | 101 | 2.0 | 6.0 | 0.03 | 0.03 | 0.03 | 81 | 1013.3 |
| 20260504013556 | 47 | 98 | 1.0 | 6.0 | 0.03 | 0.03 | 0.03 | 81 | 1013.5 |
| 20260504013058 | 47 | 104 | 2.0 | 6.0 | 0.03 | 0.03 | 0.03 | 81 | 1013.4 |
| 20260504012556 | 47 | 107 | 1.0 | 4.0 | 0.03 | 0.03 | 0.03 | 81 | 1013.3 |
| 20260504012057 | 47 | 0 | 0.0 | 2.0 | 0.03 | 0.03 | 0.03 | 81 | 1013.4 |
| 20260504011557 | 48 | 0 | 0.0 | 2.0 | 0.03 | 0.03 | 0.03 | 80 | 1013.4 |